TimeEDT,TemperatureF,Dew PointF,Humidity,Sea Level PressureIn,VisibilityMPH,Wind Direction,Wind SpeedMPH,Gust SpeedMPH,PrecipitationIn,Events,Conditions,WindDirDegrees,DateUTC
12:53 AM,70.0,63.0,78,29.75,10.0,Calm,Calm,-,N/A,,Clear,0,2013-09-13 04:53:00
1:53 AM,69.1,62.1,78,29.75,10.0,WSW,4.6,-,N/A,,Mostly Cloudy,240,2013-09-13 05:53:00
2:53 AM,70.0,61.0,73,29.74,10.0,NNW,9.2,-,N/A,,Scattered Clouds,330,2013-09-13 06:53:00
3:53 AM,68.0,57.0,68,29.75,10.0,NNW,15.0,23.0,N/A,,Overcast,330,2013-09-13 07:53:00
4:53 AM,66.9,57.0,70,29.77,10.0,NNW,8.1,-,N/A,,Overcast,340,2013-09-13 08:53:00
5:53 AM,66.0,55.9,70,29.77,10.0,NNW,10.4,-,N/A,,Overcast,330,2013-09-13 09:53:00
6:53 AM,66.0,57.0,73,29.78,10.0,NNW,3.5,-,0.00,Rain,Light Rain,330,2013-09-13 10:53:00
7:53 AM,64.9,55.9,73,29.81,10.0,Calm,Calm,-,0.00,,Overcast,0,2013-09-13 11:53:00
8:53 AM,68.0,53.1,59,29.82,10.0,North,4.6,-,N/A,,Mostly Cloudy,350,2013-09-13 12:53:00
9:53 AM,70.0,53.1,55,29.83,10.0,NNW,12.7,-,N/A,,Scattered Clouds,330,2013-09-13 13:53:00
10:53 AM,71.1,50.0,47,29.83,10.0,NW,18.4,23.0,N/A,,Clear,310,2013-09-13 14:53:00
11:53 AM,73.0,50.0,44,29.83,10.0,NNW,10.4,-,N/A,,Partly Cloudy,330,2013-09-13 15:53:00
12:53 PM,73.9,48.0,40,29.82,10.0,NW,13.8,20.7,N/A,,Clear,310,2013-09-13 16:53:00
1:53 PM,73.9,46.9,38,29.82,10.0,NW,11.5,20.7,N/A,,Mostly Cloudy,320,2013-09-13 17:53:00
2:53 PM,73.0,46.9,39,29.82,10.0,NW,8.1,-,N/A,,Mostly Cloudy,310,2013-09-13 18:53:00
3:53 PM,75.9,46.0,35,29.81,10.0,WNW,15.0,20.7,0.00,,Partly Cloudy,300,2013-09-13 19:53:00
4:10 PM,69.8,51.8,53,29.83,10.0,North,13.8,-,N/A,,Scattered Clouds,350,2013-09-13 20:10:00
4:53 PM,66.0,53.1,63,29.84,10.0,NNW,9.2,-,0.00,Rain,Light Rain,340,2013-09-13 20:53:00
5:53 PM,68.0,48.9,50,29.84,10.0,NNW,19.6,28.8,0.00,,Mostly Cloudy,340,2013-09-13 21:53:00
6:53 PM,64.9,48.0,54,29.88,10.0,NNW,17.3,21.9,N/A,,Scattered Clouds,330,2013-09-13 22:53:00
7:53 PM,63.0,45.0,52,29.91,10.0,NW,15.0,24.2,N/A,,Mostly Cloudy,310,2013-09-13 23:53:00
8:53 PM,61.0,46.0,58,29.93,10.0,NW,13.8,23.0,N/A,,Clear,320,2013-09-14 00:53:00
9:53 PM,61.0,46.9,60,29.96,10.0,NW,8.1,-,N/A,,Clear,320,2013-09-14 01:53:00
10:53 PM,60.1,46.9,62,29.97,10.0,North,8.1,-,N/A,,Overcast,360,2013-09-14 02:53:00
11:53 PM,57.9,43.0,58,29.98,10.0,NNW,11.5,18.4,N/A,,Partly Cloudy,340,2013-09-14 03:53:00